SHU149 KDFW-KOKC

Flight info

Callsign SHU149
Flight time 0h 40m
Altitude 24000
Route BLECO8 ZEMMA TSDEL3
Aircraft RJ1H/M-SDFGIRWY/LB1

Departure

Time 2026-04-16 10:21
Airport Dallas Fort Worth International Airport (KDFW)

Arrival

Time 2026-04-16 11:01
Airport OKC Will Rogers World Airport (KOKC)
Time Latitude Longitude Altitude Speed Heading
2026-04-16 10:01 32.91088 -97.03511 582 ft 0 kts
2026-04-16 10:16 32.91094 -97.03511 582 ft 3 kts
2026-04-16 10:16 32.91131 -97.03499 582 ft 8 kts 46°
2026-04-16 10:17 32.91124 -97.03409 582 ft 15 kts 99°
2026-04-16 10:17 32.91173 -97.03360 582 ft 13 kts 358°
2026-04-16 10:17 32.91287 -97.03359 582 ft 20 kts
2026-04-16 10:17 32.91445 -97.03358 583 ft 25 kts 359°
2026-04-16 10:18 32.91562 -97.03296 577 ft 15 kts 91°
2026-04-16 10:18 32.91557 -97.03179 574 ft 13 kts 92°
2026-04-16 10:18 32.91558 -97.03079 575 ft 11 kts 90°
2026-04-16 10:18 32.91557 -97.02990 575 ft 11 kts 90°
2026-04-16 10:19 32.91556 -97.02901 575 ft 11 kts 90°
2026-04-16 10:19 32.91558 -97.02806 574 ft 12 kts 88°
2026-04-16 10:19 32.91560 -97.02705 573 ft 13 kts 92°
2026-04-16 10:19 32.91544 -97.02608 579 ft 12 kts 147°
2026-04-16 10:20 32.91439 -97.02599 570 ft 31 kts 180°
2026-04-16 10:20 32.90987 -97.02602 572 ft 96 kts 180°
2026-04-16 10:20 32.90142 -97.02608 636 ft 138 kts 180°
2026-04-16 10:20 32.89164 -97.02600 1075 ft 144 kts 179°
2026-04-16 10:21 32.88160 -97.02611 1701 ft 139 kts 184°
2026-04-16 10:21 32.87177 -97.02573 2108 ft 150 kts 184°
2026-04-16 10:21 32.86063 -97.02547 2085 ft 171 kts 178°
2026-04-16 10:21 32.84835 -97.02215 2072 ft 192 kts 170°
2026-04-16 10:22 32.83489 -97.01734 2115 ft 216 kts 168°
2026-04-16 10:22 32.82013 -97.01157 2408 ft 229 kts 168°
2026-04-16 10:22 32.80493 -97.00520 2792 ft 235 kts 167°
2026-04-16 10:22 32.78923 -96.99845 3139 ft 243 kts 163°
2026-04-16 10:23 32.77581 -96.98559 3575 ft 260 kts 128°
2026-04-16 10:23 32.76873 -96.96536 3999 ft 270 kts 112°
2026-04-16 10:23 32.76385 -96.94368 4381 ft 277 kts 98°
2026-04-16 10:23 32.76388 -96.92057 4818 ft 281 kts 89°
2026-04-16 10:24 32.76483 -96.89725 5147 ft 288 kts 88°
2026-04-16 10:24 32.76611 -96.87333 5507 ft 291 kts 87°
2026-04-16 10:24 32.77041 -96.85003 5955 ft 291 kts 62°
2026-04-16 10:24 32.78371 -96.83231 6352 ft 290 kts 30°
2026-04-16 10:25 32.80214 -96.82331 6744 ft 287 kts 14°
2026-04-16 10:25 32.82145 -96.81710 7121 ft 289 kts 11°
2026-04-16 10:25 32.84111 -96.81184 7490 ft 290 kts
2026-04-16 10:25 32.86094 -96.80773 7912 ft 289 kts
2026-04-16 10:26 32.88103 -96.80708 8323 ft 289 kts 355°
2026-04-16 10:26 32.90121 -96.80752 8778 ft 290 kts 354°
2026-04-16 10:26 32.92142 -96.80815 9218 ft 292 kts 354°
2026-04-16 10:26 32.94181 -96.80863 9673 ft 294 kts 354°
2026-04-16 10:27 32.96230 -96.80898 10124 ft 296 kts 354°
2026-04-16 10:27 32.98271 -96.81119 10549 ft 292 kts 338°
2026-04-16 10:27 33.00156 -96.81975 10998 ft 290 kts 330°
2026-04-16 10:27 33.01988 -96.82994 11468 ft 292 kts 328°
2026-04-16 10:28 33.03804 -96.84104 11943 ft 294 kts 326°
2026-04-16 10:28 33.05610 -96.85267 12464 ft 296 kts 325°
2026-04-16 10:28 33.07424 -96.86466 12935 ft 303 kts 325°
2026-04-16 10:28 33.09279 -96.87710 13074 ft 318 kts 325°
2026-04-16 10:29 33.11283 -96.89042 13168 ft 332 kts 325°
2026-04-16 10:29 33.13325 -96.90395 13416 ft 338 kts 325°
2026-04-16 10:29 33.15372 -96.91715 13771 ft 340 kts 326°
2026-04-16 10:29 33.17464 -96.93058 14092 ft 342 kts 326°
2026-04-16 10:30 33.19559 -96.94415 14398 ft 344 kts 326°
2026-04-16 10:30 33.21675 -96.95777 14720 ft 346 kts 325°
2026-04-16 10:30 33.23796 -96.97137 15041 ft 347 kts 325°
2026-04-16 10:30 33.25929 -96.98511 15362 ft 349 kts 324°
2026-04-16 10:31 33.28062 -96.99901 15688 ft 350 kts 324°
2026-04-16 10:31 33.30207 -97.01299 15994 ft 352 kts 324°
2026-04-16 10:31 33.32367 -97.02700 16285 ft 354 kts 324°
2026-04-16 10:31 33.34539 -97.04102 16581 ft 356 kts 324°
2026-04-16 10:32 33.36724 -97.05519 16898 ft 357 kts 324°
2026-04-16 10:32 33.38904 -97.06954 17189 ft 359 kts 324°
2026-04-16 10:32 33.41100 -97.08397 17489 ft 361 kts 323°
2026-04-16 10:32 33.43306 -97.09840 17791 ft 363 kts 325°
2026-04-16 10:33 33.45751 -97.10803 18033 ft 383 kts 347°
2026-04-16 10:33 33.48458 -97.10750 18308 ft 394 kts 358°
2026-04-16 10:33 33.51203 -97.10417 18517 ft 398 kts
2026-04-16 10:33 33.53966 -97.10016 18782 ft 400 kts
2026-04-16 10:34 33.56734 -97.09571 19042 ft 402 kts
2026-04-16 10:34 33.59512 -97.09134 19284 ft 404 kts
2026-04-16 10:34 33.62307 -97.08728 19544 ft 405 kts
2026-04-16 10:34 33.65108 -97.08342 19783 ft 406 kts 359°
2026-04-16 10:35 33.67924 -97.07988 20020 ft 407 kts 359°
2026-04-16 10:35 33.70749 -97.07641 20246 ft 409 kts 359°
2026-04-16 10:35 33.73585 -97.07300 20488 ft 411 kts 359°
2026-04-16 10:35 33.76438 -97.06955 20717 ft 412 kts 359°
2026-04-16 10:36 33.79294 -97.06594 20962 ft 414 kts 360°
2026-04-16 10:36 33.82165 -97.06218 21185 ft 416 kts 360°
2026-04-16 10:36 33.85043 -97.05836 21412 ft 417 kts 360°
2026-04-16 10:36 33.87938 -97.05447 21652 ft 418 kts 360°
2026-04-16 10:37 33.90835 -97.05078 21876 ft 419 kts 359°
2026-04-16 10:37 33.93747 -97.04728 22081 ft 421 kts 359°
2026-04-16 10:37 33.96628 -97.04362 22317 ft 423 kts 360°
2026-04-16 10:37 33.99557 -97.03974 22526 ft 424 kts 360°
2026-04-16 10:38 34.02499 -97.03585 22766 ft 425 kts 360°
2026-04-16 10:38 34.05451 -97.03209 22904 ft 425 kts 360°
2026-04-16 10:38 34.08368 -97.02828 22932 ft 422 kts 360°
2026-04-16 10:38 34.11309 -97.02444 22962 ft 428 kts 360°
2026-04-16 10:39 34.14284 -97.02059 22973 ft 431 kts 360°
2026-04-16 10:39 34.17259 -97.01676 22967 ft 430 kts 360°
2026-04-16 10:39 34.20233 -97.01293 22972 ft 429 kts 360°
2026-04-16 10:39 34.23208 -97.00909 22980 ft 430 kts 360°
2026-04-16 10:40 34.26183 -97.00534 22967 ft 431 kts 359°
2026-04-16 10:40 34.29171 -97.00170 22994 ft 431 kts 360°
2026-04-16 10:40 34.32150 -96.99809 22983 ft 430 kts 360°
2026-04-16 10:40 34.35127 -96.99492 22981 ft 426 kts 354°
2026-04-16 10:41 34.38013 -96.99926 22991 ft 415 kts 340°
2026-04-16 10:41 34.40778 -97.00852 22986 ft 411 kts 334°
2026-04-16 10:41 34.43415 -97.02131 22983 ft 405 kts 328°
2026-04-16 10:41 34.45931 -97.03636 22950 ft 403 kts 325°
2026-04-16 10:42 34.48396 -97.05248 22956 ft 402 kts 323°
2026-04-16 10:42 34.50014 -97.06331 22955 ft 402 kts 323°
2026-04-16 10:42 34.52468 -97.07965 22962 ft 402 kts 324°
2026-04-16 10:42 34.54929 -97.09600 22981 ft 405 kts 324°
2026-04-16 10:43 34.57409 -97.11218 22972 ft 406 kts 324°
2026-04-16 10:43 34.59860 -97.12800 22667 ft 395 kts 324°
2026-04-16 10:43 34.62291 -97.14362 22081 ft 395 kts 325°
2026-04-16 10:43 34.64730 -97.15900 21620 ft 393 kts 326°
2026-04-16 10:44 34.67136 -97.17433 21163 ft 389 kts 325°
2026-04-16 10:44 34.69522 -97.18974 20574 ft 387 kts 325°
2026-04-16 10:44 34.71890 -97.20489 19963 ft 384 kts 326°
2026-04-16 10:44 34.74252 -97.21990 19303 ft 383 kts 326°
2026-04-16 10:45 34.76588 -97.23479 18903 ft 374 kts 326°
2026-04-16 10:45 34.78861 -97.24952 18495 ft 364 kts 324°
2026-04-16 10:45 34.81012 -97.26505 17947 ft 357 kts 322°
2026-04-16 10:45 34.83077 -97.28060 17109 ft 331 kts 321°
2026-04-16 10:46 34.84986 -97.29515 15502 ft 316 kts 321°
2026-04-16 10:46 34.86823 -97.30929 14661 ft 312 kts 321°
2026-04-16 10:46 34.88616 -97.32315 14485 ft 300 kts 321°
2026-04-16 10:46 34.90361 -97.33664 14139 ft 295 kts 321°
2026-04-16 10:47 34.92090 -97.35003 13813 ft 294 kts 321°
2026-04-16 10:47 34.93820 -97.36340 13544 ft 295 kts 321°
2026-04-16 10:47 34.95558 -97.37660 13269 ft 295 kts 322°
2026-04-16 10:47 34.97301 -97.38981 12938 ft 294 kts 322°
2026-04-16 10:48 34.99036 -97.40295 12601 ft 293 kts 322°
2026-04-16 10:48 35.00764 -97.41609 12270 ft 293 kts 322°
2026-04-16 10:48 35.02487 -97.42922 11946 ft 292 kts 322°
2026-04-16 10:48 35.04211 -97.44238 11622 ft 292 kts 322°
2026-04-16 10:49 35.05924 -97.45553 11308 ft 290 kts 322°
2026-04-16 10:49 35.07768 -97.46594 11022 ft 299 kts 342°
2026-04-16 10:49 35.09853 -97.46934 10790 ft 304 kts 349°
2026-04-16 10:49 35.11956 -97.47136 10538 ft 303 kts 351°
2026-04-16 10:50 35.14054 -97.47271 10255 ft 300 kts 352°
2026-04-16 10:50 35.16096 -97.47366 9993 ft 296 kts 353°
2026-04-16 10:50 35.18177 -97.47449 9694 ft 294 kts 353°
2026-04-16 10:50 35.20191 -97.47545 9391 ft 293 kts 352°
2026-04-16 10:51 35.22238 -97.47658 9081 ft 287 kts 352°
2026-04-16 10:51 35.24137 -97.47761 8771 ft 267 kts 352°
2026-04-16 10:51 35.25975 -97.47860 8447 ft 266 kts 352°
2026-04-16 10:51 35.27830 -97.47981 8161 ft 266 kts 352°
2026-04-16 10:52 35.29666 -97.48108 7904 ft 263 kts 352°
2026-04-16 10:52 35.31479 -97.48230 7588 ft 252 kts 352°
2026-04-16 10:52 35.33176 -97.48332 7294 ft 236 kts 352°
2026-04-16 10:52 35.34851 -97.48437 6921 ft 241 kts 352°
2026-04-16 10:53 35.36522 -97.48539 6692 ft 240 kts 352°
2026-04-16 10:53 35.38189 -97.48651 6463 ft 239 kts 352°
2026-04-16 10:53 35.39848 -97.48743 6219 ft 240 kts 353°
2026-04-16 10:53 35.41537 -97.48770 6074 ft 244 kts 355°
2026-04-16 10:54 35.43229 -97.48761 6044 ft 241 kts 355°
2026-04-16 10:54 35.44903 -97.48737 6016 ft 239 kts 356°
2026-04-16 10:54 35.46574 -97.48666 6017 ft 241 kts 358°
2026-04-16 10:54 35.48252 -97.48553 6015 ft 241 kts 359°
2026-04-16 10:55 35.49918 -97.48429 5791 ft 240 kts 358°
2026-04-16 10:55 35.51588 -97.48309 5528 ft 240 kts 358°
2026-04-16 10:55 35.53254 -97.48195 5286 ft 240 kts 358°
2026-04-16 10:55 35.54925 -97.48067 5019 ft 241 kts 358°
2026-04-16 10:56 35.56554 -97.48224 4809 ft 232 kts 331°
2026-04-16 10:56 35.57724 -97.49454 4656 ft 219 kts 292°
2026-04-16 10:56 35.57969 -97.51223 4528 ft 211 kts 262°
2026-04-16 10:56 35.57792 -97.53007 4386 ft 210 kts 260°
2026-04-16 10:57 35.57280 -97.54638 4246 ft 207 kts 227°
2026-04-16 10:57 35.56129 -97.55712 4108 ft 209 kts 218°
2026-04-16 10:57 35.54968 -97.56786 3928 ft 208 kts 220°
2026-04-16 10:57 35.53776 -97.57783 3759 ft 206 kts 215°
2026-04-16 10:58 35.52585 -97.58658 3614 ft 195 kts 213°
2026-04-16 10:58 35.51348 -97.59128 3453 ft 188 kts 185°
2026-04-16 10:58 35.50066 -97.58979 3194 ft 177 kts 183°
2026-04-16 10:58 35.48911 -97.58906 2943 ft 155 kts 186°
2026-04-16 10:59 35.47897 -97.58881 2736 ft 138 kts 187°
2026-04-16 10:59 35.46957 -97.58879 2566 ft 132 kts 188°
2026-04-16 10:59 35.46051 -97.58893 2398 ft 130 kts 186°
2026-04-16 10:59 35.45143 -97.58891 2236 ft 131 kts 187°
2026-04-16 11:00 35.44229 -97.58900 2048 ft 132 kts 186°
2026-04-16 11:00 35.43308 -97.58944 1874 ft 135 kts 181°
2026-04-16 11:00 35.42364 -97.58909 1716 ft 140 kts 180°
2026-04-16 11:00 35.41404 -97.58886 1508 ft 135 kts 184°
2026-04-16 11:01 35.40485 -97.58898 1341 ft 128 kts 180°
2026-04-16 11:01 35.39666 -97.58900 1291 ft 104 kts 178°
2026-04-16 11:01 35.39101 -97.58900 1294 ft 54 kts 175°
2026-04-16 11:01 35.38866 -97.58852 1295 ft 28 kts 214°
2026-04-16 11:02 35.38817 -97.59040 1291 ft 24 kts 308°
2026-04-16 11:02 35.38963 -97.59062 1293 ft 20 kts
2026-04-16 11:02 35.39103 -97.59060 1291 ft 20 kts
2026-04-16 11:02 35.39204 -97.59068 1291 ft 8 kts 330°
2026-04-16 11:03 35.39217 -97.59119 1291 ft 6 kts 263°
2026-04-16 11:03 35.39216 -97.59161 1292 ft 4 kts 269°
2026-04-16 11:03 35.39223 -97.59225 1294 ft 5 kts 320°
2026-04-16 11:04 35.39258 -97.59223 1294 ft 8 kts
2026-04-16 11:04 35.39343 -97.59221 1294 ft 17 kts 354°
2026-04-16 11:04 35.39384 -97.59313 1296 ft 11 kts 270°
2026-04-16 11:04 35.39384 -97.59399 1297 ft 8 kts 270°
2026-04-16 11:05 35.39392 -97.59427 1297 ft 3 kts 322°
2026-04-16 11:05 35.39426 -97.59445 1297 ft 8 kts 338°
2026-04-16 11:05 35.39470 -97.59467 1297 ft 4 kts 338°
2026-04-16 11:05 35.39477 -97.59470 1297 ft 0 kts 338°